Flag Weather past 2 weeks in Hong Kong, Hong Kong

Now
77 °F

Passing clouds.


Feels Like: 79 °F
Forecast: 73 / 78 °F
Wind: 6 mph from East

Location: National Airport

Current Time: Nov 27, 2014 at 12:46:02 PM

Latest Report: Nov 27, 2014 at 12:00 PM


Visibility: N/A

Pressure: 29.98 "Hg

Humidity: 65%

Dew point: 64 °F

Location of Hong KongLocation

Historic Weather in Hong Kong — Graph

°F

Hong Kong temperature yesterday

Maximum temperature yesterday: 79 °F (at 11:30 AM)
Minimum temperature yesterday: 73 °F (at 5:00 AM)
Average temperature yesterday: 76 °F

Past Weeks' High & Low Weather Summary

 TemperatureHumidityPressure
High82 °F (Nov 23, 1:00 PM)88% (Nov 12, 10:30 PM)30.24 "Hg (Nov 12, 10:30 PM)
Low64 °F (Nov 13, 4:00 AM)44% (Nov 17, 4:00 PM)29.86 "Hg (Nov 25, 3:30 PM)
Average73 °F65%30.05 "Hg
* Reported Nov 12 11:30 AM — Nov 27 11:30 AM, Hong Kong, Weather by CustomWeather, © 2014

Note: Actual official high and low records may vary slightly from our data, if they occured in-between our weather recording intervals... More about our weather records

Advertising

Hong Kong weather history for previous 24 hours

 ConditionsComfort  
Time TempWeatherWind HumidityBarometerVisibility
11:30 AM
Nov 27
75 °FScattered clouds.5 mph69%30.01 "HgN/A
11:00 AM75 °FScattered clouds.6 mph69%30.01 "HgN/A
10:30 AM75 °FScattered clouds.7 mph69%30.01 "HgN/A
10:00 AM75 °FScattered clouds.8 mph69%30.04 "HgN/A
9:30 AM75 °FScattered clouds.9 mph69%30.01 "HgN/A
9:00 AM75 °FScattered clouds.9 mph69%30.04 "HgN/A
8:30 AM75 °FScattered clouds.10 mph69%30.01 "HgN/A
7:30 AM73 °FScattered clouds.10 mph74%30.01 "Hg6 mi
7:00 AM73 °FScattered clouds.9 mph74%29.98 "Hg6 mi
6:30 AM73 °FPassing clouds.9 mph74%29.98 "HgN/A
6:00 AM73 °FPassing clouds.10 mph74%29.98 "HgN/A
5:30 AM73 °FPassing clouds.10 mph74%29.98 "HgN/A
5:00 AM73 °FPassing clouds.8 mph74%29.95 "HgN/A
4:30 AM73 °FPassing clouds.12 mph74%29.95 "HgN/A
4:00 AM73 °FPassing clouds.12 mph74%29.95 "Hg6 mi
3:30 AM73 °FPassing clouds.12 mph74%29.95 "HgN/A
3:00 AM73 °FPassing clouds.14 mph74%29.95 "HgN/A
2:30 AM73 °FPassing clouds.14 mph74%29.95 "HgN/A
2:00 AM73 °FPassing clouds.12 mph74%29.95 "HgN/A
1:30 AM73 °FPassing clouds.17 mph74%29.95 "HgN/A
1:00 AM73 °FPassing clouds.18 mph74%29.95 "HgN/A
12:30 AM73 °FPassing clouds.20 mph74%29.95 "HgN/A
12:00 AM73 °FPassing clouds.20 mph74%29.95 "Hg6 mi
11:30 PM
Nov 26
73 °FPassing clouds.14 mph74%29.95 "Hg6 mi
11:00 PM73 °FPassing clouds.14 mph74%29.95 "Hg6 mi
10:30 PM73 °FPassing clouds.15 mph74%29.95 "Hg5 mi
10:00 PM73 °FPassing clouds.14 mph78%29.95 "Hg6 mi
9:30 PM75 °FPassing clouds.15 mph74%29.95 "Hg6 mi
9:00 PM75 °FPassing clouds.13 mph69%29.95 "Hg5 mi
8:30 PM73 °FPassing clouds.14 mph78%29.95 "Hg5 mi
8:00 PM75 °FPassing clouds.12 mph69%29.95 "Hg5 mi
7:30 PM75 °FPassing clouds.9 mph74%29.92 "Hg6 mi
7:00 PM75 °FPassing clouds.9 mph69%29.92 "Hg6 mi
6:30 PM75 °FPassing clouds.12 mph69%29.92 "Hg6 mi
6:00 PM75 °FPassing clouds.12 mph69%29.92 "Hg6 mi
5:30 PM75 °FScattered clouds.13 mph69%29.89 "Hg5 mi
5:00 PM77 °FPassing clouds.14 mph65%29.89 "Hg4 mi
4:30 PM77 °FPassing clouds.14 mph65%29.89 "Hg4 mi
4:00 PM79 °FPassing clouds.14 mph65%29.89 "Hg4 mi
3:30 PM79 °FPassing clouds.14 mph65%29.89 "Hg5 mi
3:00 PM79 °FPassing clouds.14 mph61%29.89 "Hg6 mi
2:30 PM79 °FPassing clouds.12 mph61%29.89 "HgN/A
2:00 PM79 °FScattered clouds.15 mph65%29.89 "HgN/A
1:30 PM79 °FScattered clouds.13 mph65%29.89 "HgN/A
1:00 PM79 °FScattered clouds.13 mph65%29.92 "HgN/A
12:30 PM79 °FScattered clouds.12 mph65%29.95 "HgN/A
12:00 PM79 °FScattered clouds.13 mph65%29.95 "HgN/A
Weather by CustomWeather, © 2014

See weather overviewHow to use our weather pages